Satellite: RS-38 Catalog number: 35869 Epoch time: 11342.71984713 Element set: 949 Inclination: 098.6813 deg RA of node: 035.3966 deg Eccentricity: 0.0003867 Arg of perigee: 245.1421 deg Mean anomaly: 114.9346 deg Mean motion: 14.22041941 rev/day Decay rate: 1.13e-06 rev/day^2 Epoch rev: 11540 Checksum: 307
Satellite: ARISSAT1 Catalog number: 37772 Epoch time: 11342.51301127 Element set: 388 Inclination: 051.6349 deg RA of node: 355.3173 deg Eccentricity: 0.0007320 Arg of perigee: 085.8092 deg Mean anomaly: 050.8257 deg Mean motion: 15.88861535 rev/day Decay rate: 3.59917e-03 rev/day^2 Epoch rev: 1981 Checksum: 312
Satellite: SRMSAT Catalog number: 37839 Epoch time: 11341.46199373 Element set: 0046 Inclination: 019.9600 deg RA of node: 085.7442 deg Eccentricity: 0.0019087 Arg of perigee: 260.5245 deg Mean anomaly: 099.3001 deg Mean motion: 14.12002058 rev/day Decay rate: 6.19e-06 rev/day^2 Epoch rev: 00797 Checksum: 289
Satellite: JUGNU Catalog number: 37841 Epoch time: 11341.46720886 Element set: 0045 Inclination: 019.9709 deg RA of node: 086.8232 deg Eccentricity: 0.0012477 Arg of perigee: 235.1714 deg Mean anomaly: 124.7517 deg Mean motion: 14.10095160 rev/day Decay rate: 2.64e-06 rev/day^2 Epoch rev: 00796 Checksum: 288
/EX
participants (1)
-
Ray Hoad